Dewpoint
60 61 61 60 59 59 58 57 56 56 56 55 54 54 53 53 51 51 51 50 49 48 46 45 45 45 45 44 44 43 42 44 44 44 45 44 44 46 44 44 45 42
60 61 60 60 59 58 57 57 57 56 56 56 55 53 53 52 51 50 49 49 48 47 45 44 43 42 42 42 43 41 40 42 42 42 43 42 42 44 45 46 44 42
61 60 60 59 58 58 57 56 56 56 55 55 55 54 53 52 50 49 48 48 47 45 45 43 43 43 43 43 42 42 41 41 42 42 42 42 41 42 43 42 41 42
60 60 59 59 57 56 56 55 56 56 55 54 53 53 52 51 50 49 48 47 46 44 44 43 42 41 41 42 43 41 42 41 40 42 41 41 41 41 41 41 41 40
60 59 58 57 55 55 55 55 55 54 54 53 53 52 51 50 49 46 46 45 44 43 42 42 42 42 42 43 42 41 42 40 41 41 39 40 41 41 41 40 40 40
58 56 55 54 55 55 54 53 52 54 53 53 52 51 50 49 46 45 44 44 42 41 40 40 40 41 41 41 41 41 40 39 39 38 36 37 38 39 39 39 39 39
56 56 56 54 54 55 54 53 53 54 53 52 50 51 50 48 46 44 42 41 39 38 37 39 40 41 41 42 41 40 39 38 37 35 34 36 38 39 38 38 36 36
56 55 54 53 54 54 53 52 53 53 53 51 51 50 48 46 44 44 42 39 36 36 37 37 38 38 40 40 39 39 40 39 37 34 35 36 37 36 37 37 38 34
56 54 52 53 54 54 53 52 53 53 51 51 49 49 48 46 45 44 41 38 37 38 36 36 37 38 40 39 39 38 37 39 37 36 35 36 35 35 34 37 36 38
55 53 53 53 54 53 53 53 53 52 50 49 48 48 46 47 45 42 41 40 39 37 37 37 39 40 38 36 35 36 36 35 35 36 34 33 33 33 34 35 36 37
54 53 53 54 54 53 53 53 52 51 49 47 48 48 46 46 44 43 42 40 42 38 38 38 39 38 36 35 37 37 36 36 34 33 34 34 36 36 36 36 36 37
53 53 53 54 53 53 53 53 52 51 48 48 46 46 47 46 45 44 41 39 39 38 38 38 38 38 36 34 34 36 37 37 36 35 34 34 34 36 36 37 38 37
53 54 54 53 53 53 53 51 51 51 48 46 46 47 46 45 45 43 43 40 39 39 39 39 38 36 36 36 35 36 37 37 38 37 35 35 35 35 35 36 37 38
54 54 53 52 52 52 51 51 50 49 47 46 46 46 46 44 43 43 44 41 41 40 39 40 37 34 35 36 36 38 38 38 38 38 37 36 37 36 38 37 38 39
54 54 53 52 51 50 50 50 50 49 47 46 46 46 46 44 44 43 43 41 40 41 40 40 38 37 36 37 38 37 39 39 38 36 37 36 36 36 36 36 37 37
53 53 51 51 50 49 49 50 49 48 47 46 45 45 45 44 44 44 42 42 41 40 41 42 40 39 41 41 39 38 39 38 40 39 37 37 37 37 36 36 36 35
51 50 50 49 48 48 49 48 48 48 46 45 45 45 46 45 44 43 42 42 41 41 42 42 41 40 40 38 37 38 40 41 40 39 39 38 37 37 36 36 37 35
49 49 48 48 48 47 47 47 47 46 45 44 45 46 46 46 45 43 43 43 43 41 43 42 41 43 38 38 38 38 40 41 41 40 40 39 38 37 36 36 36 37
48 47 47 47 46 46 47 46 46 44 44 44 46 47 46 45 44 44 43 43 43 42 42 41 42 39 37 38 38 38 38 41 39 40 39 39 38 37 36 36 36 38
47 46 46 46 46 46 46 45 45 43 45 46 46 46 45 45 45 45 44 44 43 42 42 41 43 39 37 38 38 37 37 38 40 40 40 38 38 37 38 37 36 36
46 45 45 45 45 45 45 44 44 44 45 45 45 45 45 44 44 45 45 44 43 43 42 42 44 38 38 38 38 37 37 37 42 41 41 40 39 39 39 39 36 36
45 45 45 44 44 44 44 44 44 45 45 45 45 44 44 44 45 44 44 44 43 43 43 41 48 37 37 38 38 37 37 39 40 42 41 40 39 39 38 38 36 37
45 44 44 43 43 43 43 43 44 45 45 45 44 44 43 44 44 44 44 43 43 43 43 42 45 39 37 38 38 37 38 38 40 40 39 40 40 39 38 38 37 34
45 44 43 43 42 42 42 43 44 44 44 44 43 43 43 43 43 43 44 43 44 43 43 42 44 41 38 38 37 37 40 39 40 39 40 39 39 39 38 38 39 43
44 44 43 42 42 42 43 43 43 43 43 43 42 42 42 41 41 42 43 43 44 43 45 44 43 42 37 37 37 37 40 40 38 36 38 38 37 37 38 38 38 33
45 43 42 42 41 42 43 42 42 43 43 42 41 39 39 39 40 40 42 42 43 43 44 43 43 42 41 37 37 37 37 41 39 36 37 38 37 36 36 37 36 36